Preview of NWS' New Version of Forecast
This preview is not operational and should not be used for support decisions.

Regional Weather Roundup (RWR)

Issued by National Weather Service (NWS)

                            
000
ASUS45 KCYS 220510
RWRWY 

WYOMING REGIONAL WEATHER ROUNDUP
NATIONAL WEATHER SERVICE CHEYENNE WY
1100 PM MDT SAT SEP 21 2019

NOTE:  "FAIR" INDICATES FEW OR NO CLOUDS BELOW 12,000 FEET
WITH NO SIGNIFICANT WEATHER AND/OR OBSTRUCTIONS TO VISIBILITY.

WYZ001-220600-
YELLOWSTONE NATIONAL PARK
  
CITY           SKY/WX    TMP DP  RH WIND       PRES   REMARKS
LK YELLOWSTONE   N/A     35  35 100 CALM      30.20S                  
W YELLOWSTONE  NOT AVBL                                               

$$
WYZ002>013-054>058-071-098>099-220600-
NORTHERN WYOMING
  
CITY           SKY/WX    TMP DP  RH WIND       PRES   REMARKS
JACKSON        NOT AVBL                                               
CODY           CLOUDY    53  35  50 W7        30.06S                  
GREYBULL       NOT AVBL                                               
WORLAND        FAIR      46  43  89 SW5       30.05F                  
SHERIDAN       FAIR      43  40  89 SW6       30.03F                  
BUFFALO        FAIR      43  39  86 CALM      30.07S                  
GILLETTE       FAIR      43  39  86 SW7       30.04F                  
HULETT         FAIR      43  39  87 S7        30.05R                  
NEWCASTLE      FAIR      43  37  81 SE8       30.09R                  

$$
WYZ014>020-022>026-101>103-220600-
CENTRAL WYOMING
  
CITY           SKY/WX    TMP DP  RH WIND       PRES   REMARKS
BIG PINEY      FAIR      33  30  88 NE3       30.20S                  
PINEDALE       FAIR      34  32  93 NW7       30.21S WCI  28          
DUBOIS         CLOUDY    39  32  75 NW7       30.15F WCI  34          
LANDER         FAIR      45  37  73 SW5       30.10F                  
RIVERTON       FAIR      44  40  85 SW6       30.12R                  
CASPER         MOCLDY    45  42  89 NE7       30.11S                  
DOUGLAS        FAIR      44  37  76 CALM      30.11F                  

$$
WYZ021-027>030-104>119-220600-
SOUTHERN WYOMING
  
CITY           SKY/WX    TMP DP  RH WIND       PRES   REMARKS
EVANSTON       FAIR      39  30  70 SW5       30.23S                  
KEMMERER       FAIR      37  32  81 CALM      30.23S                  
ROCK SPRINGS   FAIR      41  30  65 W8        30.20R                  
DIXON          FAIR      36  23  58 E18       30.20R WCI  26          
RAWLINS        FAIR      43  25  49 SW6       30.15R                  
SARATOGA       FAIR      36  23  60 CALM      30.17R                  
LARAMIE        FAIR      44  23  43 SE5       30.15S                  
CHEYENNE       FAIR      48  37  65 CALM      30.10F                  
TORRINGTON     FAIR      50  40  68 E6        30.05F                  
PINE BLUFFS    FAIR      50  43  76 CALM      30.09F                  

$$
  

000
ASUS45 KCYS 220510
RWRWY 

WYOMING REGIONAL WEATHER ROUNDUP
NATIONAL WEATHER SERVICE CHEYENNE WY
1100 PM MDT SAT SEP 21 2019

NOTE:  "FAIR" INDICATES FEW OR NO CLOUDS BELOW 12,000 FEET
WITH NO SIGNIFICANT WEATHER AND/OR OBSTRUCTIONS TO VISIBILITY.

WYZ001-220600-
...YELLOWSTONE NATIONAL PARK...
  
CITY           SKY/WX    TMP DP  RH WIND       PRES   REMARKS
LK YELLOWSTONE   N/A     35  35 100 CALM      30.20S                  
W YELLOWSTONE  NOT AVBL                                               

$$
WYZ002>013-054>058-071-098>099-220600-
...NORTHERN WYOMING...
  
CITY           SKY/WX    TMP DP  RH WIND       PRES   REMARKS
JACKSON        NOT AVBL                                               
CODY           CLOUDY    53  35  50 W7        30.06S                  
GREYBULL       NOT AVBL                                               
WORLAND        PTCLDY    46  43  89 SW5       30.05F                  
SHERIDAN       PTCLDY    43  40  89 SW6       30.03F                  
BUFFALO        PTCLDY    43  39  86 CALM      30.07S                  
GILLETTE       PTCLDY    43  39  86 SW7       30.04F                  
HULETT         FAIR      43  39  87 S7        30.05R                  
NEWCASTLE      FAIR      43  37  81 SE8       30.09R                  

$$
WYZ014>020-022>026-101>103-220600-
...CENTRAL WYOMING...
  
CITY           SKY/WX    TMP DP  RH WIND       PRES   REMARKS
BIG PINEY      PTCLDY    33  30  88 NE3       30.20S                  
PINEDALE       CLEAR     34  32  93 NW7       30.21S WCI  28          
DUBOIS         CLOUDY    39  32  75 NW7       30.15F WCI  34          
LANDER         CLEAR     45  37  73 SW5       30.10F                  
RIVERTON       PTCLDY    44  40  85 SW6       30.12R                  
CASPER         MOCLDY    45  42  89 NE7       30.11S                  
DOUGLAS        MOCLDY    44  37  76 CALM      30.11F                  

$$
WYZ021-027>030-104>119-220600-
...SOUTHERN WYOMING...
  
CITY           SKY/WX    TMP DP  RH WIND       PRES   REMARKS
EVANSTON       PTCLDY    39  30  70 SW5       30.23S                  
KEMMERER       CLEAR     37  32  81 CALM      30.23S                  
FORT BRIDGER   NOT AVBL                                               
ROCK SPRINGS   PTCLDY    41  30  65 W8        30.20R                  
DIXON          FAIR      36  23  58 E18       30.20R WCI  26          
RAWLINS        PTCLDY    43  25  49 SW6       30.15R                  
SARATOGA       FAIR      36  23  60 CALM      30.17R                  
LARAMIE        PTCLDY    44  23  43 SE5       30.15S                  
CHEYENNE       CLOUDY    48  37  65 CALM      30.10F                  
TORRINGTON     CLOUDY    50  40  68 E6        30.05F                  
PINE BLUFFS    FAIR      50  43  76 CALM      30.09F                  

$$